Location: Bartshausen
(51.8454°N, 9.8167°E)
Time: 02:56:29
(UTC+00:00)

Cosmos 1656 Rocket - Pass Details

Date: 08 November 2025
Orbit: 792 x 846 km, 71.1° (Epoch: 15 December)

Event Time Altitude Azimuth Distance (km) Brightness Sun altitude
Exits shadow 05:05:56 - 330° (NNW) 3,022 6.2 -12.8°
Reaches altitude 10° 05:07:23 10° 331° (NNW) 2,471 5.8 -12.6°
Maximum altitude 05:13:05 77° 58° (ENE) 872 3.9 -11.7°
Drops below altitude 10° 05:18:46 10° 145° (SE) 2,464 6.9 -10.9°
Sets 05:21:12 0° 147° (SSE) 3,394 7.6 -10.5°
